Flag for France Weather past 2 weeks in Bordeaux, France

Now
61 °F

Clear.


Feels Like: 61 °F
Forecast: 51 / 75 °F
Wind: 7 mph from North

Location: Bordeaux / Merignac

Current Time: May 26, 2015 at 10:47:04 AM

Latest Report: May 26, 2015 at 10:00 AM


Visibility: N/A

Pressure: 30.18 "Hg

Humidity: 72%

Dew point: 52 °F

Location of BordeauxLocation

Historic Weather in Bordeaux — Graph

°F

Bordeaux temperature yesterday

Maximum temperature yesterday: 70 °F (at 2:00 PM)
Minimum temperature yesterday: 52 °F (at 6:30 AM)
Average temperature yesterday: 61 °F

Past Weeks' High & Low Weather Summary

 TemperatureHumidityPressure
High79 °F (May 11, 3:30 PM)100% (May 12, 1:30 AM)30.45 "Hg (May 12, 1:30 AM)
Low45 °F (May 21, 6:00 AM)37% (May 22, 1:00 PM)29.95 "Hg (May 15, 3:00 AM)
Average59 °F75%30.18 "Hg
* Reported May 11 9:00 AM — May 26 9:30 AM, Bordeaux, Weather by CustomWeather, © 2015

Note: Actual official high and low records may vary slightly from our data, if they occured in-between our weather recording intervals... More about our weather records

Advertising

Bordeaux weather history for previous 24 hours

 ConditionsComfort  
Time TempWeatherWind HumidityBarometerVisibility
9:30 AM
Tue, May 26
59 °FOvercast.8 mph77%30.18 "HgN/A
9:00 AM59 °FMostly cloudy.7 mph77%30.18 "HgN/A
8:30 AM57 °FMore clouds than sun.7 mph82%30.15 "HgN/A
8:00 AM57 °FMore clouds than sun.7 mph88%30.15 "HgN/A
7:30 AM55 °FMore clouds than sun.7 mph94%30.15 "HgN/A
7:00 AM55 °FLow clouds.5 mph94%30.15 "Hg6 mi
6:30 AM55 °FLow clouds.5 mph94%30.12 "HgN/A
6:00 AM55 °FLow clouds.5 mph94%30.12 "HgN/A
5:30 AM54 °FClear.5 mph100%30.12 "HgN/A
4:30 AM54 °FPassing clouds.6 mph94%30.15 "Hg6 mi
4:00 AM54 °FPassing clouds.3 mph94%30.15 "HgN/A
3:30 AM54 °FClear.6 mph88%30.15 "HgN/A
3:00 AM54 °FPassing clouds.6 mph88%30.15 "HgN/A
2:30 AM54 °FPassing clouds.6 mph88%30.15 "HgN/A
2:00 AM54 °FPassing clouds.6 mph88%30.15 "HgN/A
1:30 AM54 °FPassing clouds.7 mph88%30.15 "HgN/A
1:00 AM55 °FPassing clouds.5 mph82%30.15 "HgN/A
12:30 AM55 °FClear.5 mph82%30.15 "HgN/A
12:00 AM57 °FPassing clouds.10 mph72%30.15 "HgN/A
11:30 PM
Mon, May 25
57 °FOvercast.8 mph77%30.15 "HgN/A
10:30 PM57 °FPassing clouds.8 mph77%30.15 "HgN/A
10:00 PM59 °FOvercast.13 mph77%30.15 "HgN/A
9:30 PM61 °FOvercast.10 mph77%30.12 "HgN/A
9:00 PM61 °FMostly cloudy.12 mph83%30.12 "HgN/A
8:30 PM63 °FPartly sunny.12 mph77%30.12 "HgN/A
8:00 PM63 °FMore clouds than sun.13 mph77%30.12 "HgN/A
7:30 PM63 °FMostly cloudy.13 mph77%30.12 "HgN/A
7:00 PM64 °FCloudy.14 mph73%30.12 "HgN/A
6:30 PM64 °FMostly cloudy.17 mph73%30.12 "HgN/A
6:00 PM66 °FPartly sunny.15 mph68%30.12 "HgN/A
5:30 PM68 °FPartly sunny.16 mph64%30.12 "HgN/A
5:00 PM70 °FPartly sunny.16 mph60%30.12 "HgN/A
4:30 PM70 °FPartly sunny.17 mph60%30.12 "HgN/A
4:00 PM68 °FPartly sunny.14 mph64%30.12 "HgN/A
3:30 PM68 °FPartly sunny.14 mph69%30.12 "HgN/A
3:00 PM66 °FBroken clouds.14 mph73%30.12 "HgN/A
2:30 PM68 °FPartly sunny.15 mph69%30.12 "HgN/A
2:00 PM70 °FBroken clouds.12 mph60%30.12 "HgN/A
1:30 PM68 °FBroken clouds.12 mph69%30.12 "HgN/A
1:00 PM68 °FBroken clouds.14 mph64%30.15 "HgN/A
12:30 PM68 °FMostly cloudy.12 mph64%30.15 "HgN/A
12:00 PM68 °FBroken clouds.10 mph69%30.15 "HgN/A
11:30 AM68 °FBroken clouds.9 mph64%30.15 "HgN/A
11:00 AM66 °FPartly sunny.8 mph73%30.15 "HgN/A
10:30 AM63 °FPartly sunny.8 mph83%30.15 "HgN/A
10:00 AM61 °FLow clouds.6 mph88%30.15 "HgN/A
Weather by CustomWeather, © 2015

See weather overviewHow to use our weather pages